Hattiesburg, MS

2:25 AM CDT on October 01, 2016 (GMT -0500)
Chain Municipal

Weather History for KHBG - August, 2014

Change the Weather History Date:

Saturday, August 30, 2014

  Actual Average Record
Temperature  
Mean Temperature 83 °F 81 °F  
Max Temperature 92 °F 91 °F 106 °F (1951)
Min Temperature 74 °F 70 °F 56 °F (1968)
Degree Days  
Heating Degree Days 0 0  
Month to date heating degree days 0 0  
Since 1 June heating degree days 0 0  
Since 1 July heating degree days 0 0  
Cooling Degree Days 18 16  
Month to date cooling degree days 537 498  
Year to date cooling degree days 1859 1858  
Since 1 June cooling degree days 1483 1443  
Growing Degree Days 32 (Base 50)    
Moisture  
Dew Point 73 °F    
Average Humidity 78    
Maximum Humidity 100    
Minimum Humidity 56    
Precipitation  
Precipitation 0.52 in 0.15 in 3.04 in (2012)
Month to date precipitation 1.60 4.58  
Year to date precipitation 37.28 42.01  
Sea Level Pressure  
Sea Level Pressure 30.05 in    
Wind  
Wind Speed 5 mph (South)    
Max Wind Speed 23 mph    
Max Gust Speed 35 mph    
Visibility 7 miles    
Events Fog , Rain , Thunderstorm    
T = Trace of Precipitation, MM = Missing Value Source: NWS Daily Summary

Daily Weather History Graph

Daily Weather History Graph

Search for Another Location

Airport or City:

Trip Planner

Search our weather history database for the weather conditions in past years. The results will help you decide how hot, cold, wet, or windy it might be!

Date:

Astronomy

Aug. 30, 2014 Rise Set
Actual Time 6:31 AM CDT 7:22 PM CDT
Civil Twilight 6:07 AM CDT 7:47 PM CDT
Nautical Twilight 5:37 AM CDT 8:16 PM CDT
Astronomical Twilight 5:07 AM CDT 8:46 PM CDT
Moon 10:58 AM CDT (8/30) 10:18 PM CDT (8/30)
Length of Visible Light 13h 40m
Length of Day
12h 51m
Waxing Crescent, 23% of the Moon is Illuminated
Aug 30
Waxing Crescent
Sep 2
First Quarter
Sep 8
Full
Sep 15
Last Quarter
Sep 24
New

Hourly Weather History & Observations

Time (CDT) Temp. Heat Index Dew Point Humidity Pressure Visibility Wind Dir Wind Speed Gust Speed Precip Events Conditions
12:53 AM 75.9 °F - 73.0 °F 91% 30.05 in 10.0 mi South 4.6 mph - N/A   Partly Cloudy
1:33 AM 75.9 °F - 73.9 °F 94% 30.04 in 10.0 mi Calm Calm - N/A   Mostly Cloudy
1:44 AM 75.9 °F - 73.9 °F 94% 30.04 in 10.0 mi Calm Calm - N/A   Overcast
1:53 AM 77.0 °F - 73.9 °F 90% 30.04 in 10.0 mi Calm Calm - N/A   Mostly Cloudy
2:02 AM 77.0 °F - 73.9 °F 90% 30.04 in 10.0 mi Calm Calm - N/A   Mostly Cloudy
2:15 AM 75.9 °F - 73.9 °F 94% 30.04 in 10.0 mi Calm Calm - N/A   Mostly Cloudy
2:26 AM 75.9 °F - 73.9 °F 94% 30.03 in 10.0 mi East 4.6 mph - N/A   Mostly Cloudy
2:40 AM 75.9 °F - 73.9 °F 94% 30.03 in 10.0 mi East 3.5 mph - N/A   Scattered Clouds
3:53 AM 75.9 °F - 73.9 °F 94% 30.02 in 10.0 mi Calm Calm - N/A   Clear
4:53 AM 75.9 °F - 73.9 °F 94% 30.03 in 10.0 mi Calm Calm - N/A   Partly Cloudy
5:53 AM 75.0 °F - 73.9 °F 96% 30.04 in 10.0 mi Calm Calm - N/A   Clear
6:32 AM 75.0 °F - 73.0 °F 94% 30.04 in 10.0 mi Calm Calm - N/A   Scattered Clouds
6:41 AM 75.0 °F - 73.0 °F 94% 30.04 in 9.0 mi Calm Calm - N/A   Mostly Cloudy
6:53 AM 75.9 °F - 73.0 °F 91% 30.04 in 7.0 mi Calm Calm - N/A   Overcast
7:05 AM 73.9 °F - 73.0 °F 97% 30.04 in 1.8 mi SE 3.5 mph - N/A   Overcast
7:16 AM 75.0 °F - 73.9 °F 96% 30.05 in 0.5 mi Calm Calm - N/A Fog Fog
7:23 AM 75.0 °F - 73.9 °F 96% 30.05 in 0.2 mi Calm Calm - N/A Fog Fog
7:53 AM 75.9 °F - 75.0 °F 97% 30.04 in 0.2 mi ESE 4.6 mph - N/A Fog Fog
8:01 AM 75.9 °F - 75.0 °F 97% 30.05 in 0.8 mi ESE 4.6 mph - N/A   Mist
8:08 AM 75.9 °F - 75.0 °F 97% 30.05 in 1.5 mi ESE 4.6 mph - N/A   Overcast
8:13 AM 77.0 °F - 75.0 °F 94% 30.05 in 3.0 mi SE 4.6 mph - N/A   Overcast
8:43 AM 80.1 °F 85.4 °F 75.9 °F 87% 30.05 in 10.0 mi ESE 4.6 mph - N/A   Scattered Clouds
8:53 AM 82.0 °F 89.4 °F 75.9 °F 82% 30.04 in 10.0 mi Variable 4.6 mph - N/A   Clear
9:53 AM 87.1 °F 96.3 °F 75.0 °F 67% 30.06 in 10.0 mi South 8.1 mph 24.2 mph N/A   Partly Cloudy
10:53 AM 91.0 °F 100.4 °F 73.9 °F 57% 30.05 in 10.0 mi South 11.5 mph - N/A   Partly Cloudy
11:53 AM 91.9 °F 100.7 °F 73.0 °F 54% 30.03 in 10.0 mi SSE 13.8 mph - N/A   Mostly Cloudy
12:50 PM 84.2 °F 92.3 °F 75.2 °F 74% 30.03 in 2.5 mi SSW 6.9 mph - 0.07 in Rain Light Rain
12:53 PM 84.9 °F 95.3 °F 77.0 °F 77% 30.02 in 6.0 mi SSW 5.8 mph - 0.07 in Rain Light Rain
1:10 PM 84.9 °F 95.3 °F 77.0 °F 77% 30.04 in 10.0 mi East 8.1 mph - 0.00 in Thunderstorm Mostly Cloudy
1:25 PM 82.9 °F 88.8 °F 73.0 °F 72% 30.05 in 4.0 mi SW 12.7 mph 17.3 mph 0.03 in Rain , Thunderstorm Thunderstorms and Rain
1:48 PM 80.6 °F 84.6 °F 71.6 °F 74% 30.07 in 10.0 mi SW 21.9 mph 32.2 mph 0.03 in Thunderstorm Mostly Cloudy
1:53 PM 79.0 °F - 71.1 °F 77% 30.07 in 10.0 mi WSW 15.0 mph 32.2 mph 0.03 in Thunderstorm Overcast
2:20 PM 75.9 °F - 71.1 °F 85% 30.09 in 10.0 mi SW 16.1 mph 25.3 mph 0.05 in Rain Light Rain
2:42 PM 73.9 °F - 70.0 °F 87% 30.09 in 3.0 mi WSW 12.7 mph - 0.16 in Rain Rain
2:53 PM 73.9 °F - 70.0 °F 87% 30.08 in 2.5 mi WSW 13.8 mph - 0.21 in Rain Heavy Rain
3:04 PM 73.9 °F - 70.0 °F 87% 30.09 in 5.0 mi WSW 11.5 mph - 0.03 in Rain Rain
3:11 PM 73.9 °F - 71.1 °F 91% 30.09 in 5.0 mi WSW 11.5 mph - 0.05 in Rain , Thunderstorm Thunderstorms and Rain
3:26 PM 73.9 °F - 71.1 °F 91% 30.09 in 3.0 mi WSW 9.2 mph - 0.10 in Rain , Thunderstorm Heavy Rain
3:45 PM 73.9 °F - 72.0 °F 93% 30.08 in 4.0 mi SSW 5.8 mph - 0.15 in Rain Rain
3:53 PM 73.9 °F - 72.0 °F 93% 30.08 in 4.0 mi SW 5.8 mph - 0.17 in Rain Rain
4:53 PM 75.9 °F - 73.0 °F 91% 30.04 in 10.0 mi South 5.8 mph - 0.04 in Rain Light Rain
5:53 PM 75.9 °F - 73.0 °F 91% 30.04 in 10.0 mi South 4.6 mph - 0.00 in   Clear
6:53 PM 75.9 °F - 73.0 °F 91% 30.05 in 10.0 mi SSE 4.6 mph - N/A   Clear
7:53 PM 75.9 °F - 73.9 °F 94% 30.05 in 10.0 mi SSE 3.5 mph - N/A   Scattered Clouds
8:53 PM 75.0 °F - 73.0 °F 94% 30.05 in 10.0 mi SE 5.8 mph - N/A   Scattered Clouds
9:42 PM 75.0 °F - 73.0 °F 94% 30.08 in 10.0 mi Calm Calm - N/A   Mostly Cloudy
10:53 PM 75.0 °F - 73.0 °F 94% 30.08 in 10.0 mi Calm Calm - N/A   Clear
11:53 PM 73.9 °F - 73.0 °F 97% 30.06 in 10.0 mi East 3.5 mph - N/A   Clear